THORAD DELTA 1 DEB, 8144

Orbit data source: Space-Track

THORAD DELTA 1 DEB, 8144 is space debris in SSO originally from a launch on Fri, 15 Nov 1974 UTC launched from the Air Force Western Test Range (AFWTR). Debris objects in space refer to the collection of defunct objects orbiting the Earth. Examples of debris include non-operational satellites, rocket bodies, and fragments generated from explosions, collisions, or faulty payload assembly.

Loading next visibility...
Identifier
8144, 1974-089N
Orbit
SSO
Country
Flag of USUS
Related business
Manufacturer
Unknown
Mission
Spacecraft
Bus & Motor
Unknown
Mass
Unknown
Launch date (UTC)
1974-11-15 (52 years ago)
Launch vehicle
Unknown
Launch site
Air Force Western Test Range (AFWTR)
Object type
Payload
Rocket body
Debris
Shape & HBR
Unknown shape, 0.2 m
Radar Cross Section
Medium (>0.1 m² and <1 m²)

Expand to show TLE details & history
Last TLE update: 2 days ago

TLE from 2 days ago
0 THORAD DELTA 1 DEB
1  8144U 74089N   26171.33780706  .00000018  00000-0  37777-3 0  9999
2  8144 101.7645 123.3018 0149614 201.0559 325.7195 12.53922490359745
Epoch: 2026-06-20T08:06Z
TLE epoch observation values (Epoch: 2026-06-20T08:06:26.529Z)
Latitude
13.87403°
Longitude
-83.92873°
Altitude
1,353.785 km
Speed
7.226 km/s
True Right ascension
20h 24m 56s
True Declination
13° 48' 01"
Sunlit
Object was in full shadow at epoch
Visualization orbit readout
Latitude
Unknown
Longitude
Unknown
Altitude
Unknown
Speed
Unknown
Apparent Right ascension
Unknown
Apparent Declination
Unknown
Sunlit
N/A
Visualization observer readout
Local Sidereal Time
01:06:56
Azimuth
Unknown
Elevation
Unknown
Doppler factor
Unknown
Orbital elements
Apogee altitude
1,562.728 km
Perigee altitude
1,328.618 km
Semi-major axis
7,823.81 km
Eccentricity
0.01496
Inclination
101.7645°
RAAN
123.3018°
Arg. of periapsis
201.0559°
True anomaly
324.73875°
Mean anomaly
325.7195°
Eccentric anomaly
325.23065°
Mean motion
3.13629 °/min
Orbital period
114.79 mins
BSTAR
0.00037777
Loading maneuver chart data...
Computing Atmospheric mass density...

Documentation

Showing up to 5 results
|